Pecos, TX

6:00 AM CDT on May 27, 2017 (GMT -0500)
Pecos Municipal

Weather History for KPEQ - February, 2013

Change the Weather History Date:

Sunday, February 10, 2013

  Actual Average Record
Temperature  
Mean Temperature 50 °F -  
Max Temperature 63 °F 61 °F 91 °F (1976)
Min Temperature 35 °F 29 °F 9 °F (2011)
Degree Days  
Heating Degree Days 16    
Moisture  
Dew Point 14 °F    
Average Humidity 26    
Maximum Humidity 42    
Minimum Humidity 13    
Precipitation  
Precipitation 0.00 in - - ()
Sea Level Pressure  
Sea Level Pressure 29.94 in    
Wind  
Wind Speed 16 mph (West)    
Max Wind Speed 24 mph    
Max Gust Speed 32 mph    
Visibility 10 miles    
Events      
Averages and records for this station are not official NWS values.
T = Trace of Precipitation, MM = Missing Value Source: NWS Daily Summary

Daily Weather History Graph

Daily Weather History Graph

Search for Another Location

Airport or City:

Trip Planner

Search our weather history database for the weather conditions in past years. The results will help you decide how hot, cold, wet, or windy it might be!

Date:

Astronomy

Feb. 10, 2013 Rise Set
Actual Time 7:39 AM CST 6:37 PM CST
Civil Twilight 7:14 AM CST 7:02 PM CST
Nautical Twilight 6:46 AM CST 7:30 PM CST
Astronomical Twilight 6:17 AM CST 7:59 PM CST
Moon 7:35 AM CST (2/10) 7:23 PM CST (2/10)
Length of Visible Light 11h 47m
Length of Day
10h 57m
New Moon, 0% of the Moon is Illuminated
Feb 10
New Moon
Feb 17
First Quarter
Feb 25
Full
Mar 4
Last Quarter
Mar 11
New

Hourly Weather History & Observations

Time (CST) Temp. Windchill Dew Point Humidity Pressure Visibility Wind Dir Wind Speed Gust Speed Precip Events Conditions
12:15 AM 49.5 °F - 14.9 °F 25% 29.90 in 10.0 mi West 24.2 mph 27.6 mph N/A   Clear
12:35 AM 49.5 °F - 14.4 °F 25% 29.90 in 10.0 mi West 24.2 mph 32.2 mph N/A   Clear
12:55 AM 49.5 °F - 14.4 °F 25% 29.91 in 10.0 mi West 21.9 mph 28.8 mph N/A   Clear
1:15 AM 49.1 °F - 14.2 °F 25% 29.92 in 10.0 mi West 23.0 mph 28.8 mph N/A   Clear
1:35 AM 48.6 °F - 14.0 °F 25% 29.91 in 10.0 mi West 20.7 mph 27.6 mph N/A   Clear
1:55 AM 48.0 °F - 14.0 °F 26% 29.92 in 10.0 mi West 23.0 mph 28.8 mph N/A   Clear
2:15 AM 46.9 °F - 14.0 °F 27% 29.91 in 10.0 mi West 24.2 mph - N/A   Clear
2:35 AM 46.8 °F - 14.0 °F 27% 29.93 in 10.0 mi West 21.9 mph - N/A   Clear
2:55 AM 46.4 °F 38.7 °F 14.0 °F 27% 29.93 in 10.0 mi West 20.7 mph 25.3 mph N/A   Clear
3:15 AM 46.2 °F 38.5 °F 14.0 °F 27% 29.92 in 10.0 mi West 20.7 mph - N/A   Clear
3:35 AM 45.7 °F 38.6 °F 14.0 °F 28% 29.93 in 10.0 mi West 17.3 mph - N/A   Clear
3:55 AM 44.8 °F 38.3 °F 14.5 °F 30% 29.93 in 10.0 mi West 13.8 mph - N/A   Clear
4:15 AM 43.9 °F 37.5 °F 14.9 °F 31% 29.93 in 10.0 mi West 12.7 mph - N/A   Clear
4:35 AM 43.3 °F 36.8 °F 15.6 °F 33% 29.93 in 10.0 mi West 12.7 mph - N/A   Clear
4:55 AM 43.9 °F 37.5 °F 15.8 °F 32% 29.93 in 10.0 mi West 12.7 mph - N/A   Clear
5:15 AM 43.3 °F 36.8 °F 15.8 °F 33% 29.93 in 10.0 mi WSW 12.7 mph - N/A   Clear
5:35 AM 42.4 °F 36.1 °F 15.8 °F 34% 29.93 in 10.0 mi WSW 11.5 mph - N/A   Clear
5:55 AM 41.0 °F 34.3 °F 16.0 °F 36% 29.94 in 10.0 mi SW 11.5 mph - N/A   Clear
6:15 AM 42.4 °F 36.1 °F 16.0 °F 34% 29.95 in 10.0 mi SW 11.5 mph 16.1 mph N/A   Clear
6:35 AM 42.1 °F 35.7 °F 16.0 °F 35% 29.95 in 10.0 mi SW 11.5 mph - N/A   Clear
6:55 AM 42.1 °F 35.7 °F 15.8 °F 35% 29.96 in 10.0 mi SW 11.5 mph - N/A   Clear
7:15 AM 41.5 °F 34.6 °F 15.8 °F 35% 29.96 in 10.0 mi WSW 12.7 mph - N/A   Clear
7:35 AM 40.6 °F 32.7 °F 15.8 °F 37% 29.96 in 10.0 mi WSW 15.0 mph - N/A   Clear
7:55 AM 40.3 °F 33.4 °F 16.3 °F 38% 29.96 in 10.0 mi WSW 11.5 mph - N/A   Clear
8:15 AM 40.6 °F 33.8 °F 16.7 °F 38% 29.97 in 10.0 mi WSW 11.5 mph - N/A   Clear
8:35 AM 40.8 °F 35.6 °F 16.9 °F 38% 29.98 in 10.0 mi West 8.1 mph - N/A   Clear
8:55 AM 41.2 °F 36.6 °F 17.4 °F 38% 29.99 in 10.0 mi West 6.9 mph - N/A   Clear
9:15 AM 41.9 °F 37.5 °F 17.4 °F 37% 30.00 in 10.0 mi West 6.9 mph - N/A   Clear
9:35 AM 43.7 °F 42.1 °F 17.4 °F 35% 30.01 in 10.0 mi West 3.5 mph - N/A   Clear
9:55 AM 44.6 °F 39.7 °F 17.4 °F 34% 30.01 in 10.0 mi WNW 9.2 mph - N/A   Clear
10:15 AM 47.3 °F - 17.4 °F 30% 30.00 in 10.0 mi West 9.2 mph - N/A   Clear
10:35 AM 48.9 °F - 17.6 °F 29% 30.00 in 10.0 mi WSW 13.8 mph - N/A   Clear
10:55 AM 50.0 °F - 17.8 °F 28% 30.00 in 10.0 mi WSW 12.7 mph - N/A   Clear
11:15 AM 51.1 °F - 18.1 °F 27% 29.99 in 10.0 mi WSW 6.9 mph - N/A   Clear
11:35 AM 53.1 °F - 16.7 °F 24% 29.99 in 10.0 mi WSW 13.8 mph 19.6 mph N/A   Clear
11:55 AM 55.4 °F - 16.7 °F 22% 29.98 in 10.0 mi SW 9.2 mph - N/A   Clear
12:15 PM 56.7 °F - 16.3 °F 21% 29.97 in 10.0 mi WSW 12.7 mph 19.6 mph N/A   Clear
12:35 PM 57.4 °F - 15.8 °F 20% 29.96 in 10.0 mi WSW 16.1 mph 21.9 mph N/A   Clear
12:55 PM 58.5 °F - 17.1 °F 20% 29.95 in 10.0 mi SW 18.4 mph 23.0 mph N/A   Clear
1:15 PM 59.9 °F - 16.2 °F 18% 29.94 in 10.0 mi WSW 17.3 mph 21.9 mph N/A   Clear
1:35 PM 59.9 °F - 14.9 °F 17% 29.92 in 10.0 mi WSW 18.4 mph 24.2 mph N/A   Clear
1:55 PM 60.8 °F - 14.2 °F 16% 29.91 in 10.0 mi West 15.0 mph 24.2 mph N/A   Clear
2:15 PM 61.9 °F - 14.2 °F 16% 29.90 in 10.0 mi WSW 19.6 mph 23.0 mph N/A   Clear
2:35 PM 61.9 °F - 13.5 °F 15% 29.90 in 10.0 mi West 16.1 mph 27.6 mph N/A   Clear
2:55 PM 62.2 °F - 12.7 °F 14% 29.90 in 10.0 mi West 23.0 mph 29.9 mph N/A   Clear
3:15 PM 62.4 °F - 13.3 °F 15% 29.90 in 10.0 mi West 15.0 mph - N/A   Clear
3:35 PM 62.6 °F - 13.3 °F 15% 29.90 in 10.0 mi West 18.4 mph 26.5 mph N/A   Clear
3:55 PM 63.1 °F - 13.1 °F 14% 29.90 in 10.0 mi West 17.3 mph - N/A   Clear
4:15 PM 63.0 °F - 12.9 °F 14% 29.89 in 10.0 mi West 13.8 mph 20.7 mph N/A   Clear
4:35 PM 63.1 °F - 11.1 °F 13% 29.89 in 10.0 mi West 17.3 mph 24.2 mph N/A   Clear
4:55 PM 62.8 °F - 11.1 °F 13% 29.89 in 10.0 mi West 17.3 mph 20.7 mph N/A   Clear
5:15 PM 62.4 °F - 10.9 °F 13% 29.89 in 10.0 mi West 11.5 mph - N/A   Clear
5:35 PM 61.7 °F - 10.6 °F 13% 29.90 in 10.0 mi West 11.5 mph - N/A   Clear
5:55 PM 60.8 °F - 10.4 °F 14% 29.90 in 10.0 mi West 9.2 mph - N/A   Clear
6:15 PM 59.2 °F - 10.9 °F 15% 29.90 in 10.0 mi WNW 8.1 mph - N/A   Clear
6:35 PM 55.6 °F - 11.1 °F 17% 29.90 in 10.0 mi WNW 5.8 mph - N/A   Clear
6:55 PM 54.0 °F - 10.8 °F 18% 29.91 in 10.0 mi NW 3.5 mph - N/A   Clear
7:15 PM 53.2 °F - 9.3 °F 17% 29.92 in 10.0 mi North 3.5 mph - N/A   Clear
7:35 PM 52.0 °F - 8.8 °F 18% 29.92 in 10.0 mi North 3.5 mph - N/A   Clear
7:55 PM 53.6 °F - 9.0 °F 17% 29.93 in 10.0 mi NW 4.6 mph - N/A   Clear
8:15 PM 50.7 °F - 9.5 °F 19% 29.93 in 10.0 mi West 5.8 mph - N/A   Clear
8:35 PM 43.3 °F 38.1 °F 10.6 °F 26% 29.94 in 10.0 mi West 9.2 mph - N/A   Clear
8:55 PM 42.1 °F 36.6 °F 10.4 °F 27% 29.95 in 10.0 mi West 9.2 mph - N/A   Clear
9:15 PM 40.1 °F 34.7 °F 11.3 °F 31% 29.96 in 10.0 mi West 8.1 mph - N/A   Clear
9:35 PM 43.2 °F 41.5 °F 10.4 °F 26% 29.98 in 10.0 mi ESE 3.5 mph - N/A   Clear
9:55 PM 42.3 °F - 10.2 °F 27% 29.98 in 10.0 mi Calm Calm - N/A   Clear
10:15 PM 39.7 °F - 10.8 °F 30% 29.98 in 10.0 mi Calm Calm - N/A   Clear
10:35 PM 37.8 °F 35.3 °F 12.0 °F 35% 29.99 in 10.0 mi SSW 3.5 mph - N/A   Clear
10:55 PM 36.7 °F - 12.7 °F 37% 29.99 in 10.0 mi Calm Calm - N/A   Clear
11:15 PM 38.1 °F - 12.2 °F 35% 29.99 in 10.0 mi Calm Calm - N/A   Clear
11:35 PM 36.9 °F 33.1 °F 12.4 °F 37% 29.99 in 10.0 mi West 4.6 mph - N/A   Clear
11:55 PM 35.1 °F 29.3 °F 13.8 °F 42% 30.00 in 10.0 mi WNW 6.9 mph - N/A   Clear